TimeEST,TemperatureF,Dew PointF,Humidity,Sea Level PressureIn,VisibilityMPH,Wind Direction,Wind SpeedMPH,Gust SpeedMPH,PrecipitationIn,Events,Conditions,WindDirDegrees,DateUTC
12:53 AM,23.0,14.0,68,30.21,10.0,West,6.9,19.6,N/A,,Overcast,260,2012-12-31 05:53:00
1:50 AM,23.0,15.8,74,30.11,10.0,Variable,6.9,16.1,N/A,,Overcast,0,2012-12-31 06:50:00
1:53 AM,23.0,15.1,72,30.19,10.0,Variable,5.8,16.1,N/A,,Overcast,0,2012-12-31 06:53:00
2:53 AM,23.0,15.1,72,30.18,8.0,WSW,12.7,17.3,N/A,,Overcast,240,2012-12-31 07:53:00
3:53 AM,23.0,15.1,72,30.16,8.0,WSW,11.5,21.9,N/A,,Overcast,240,2012-12-31 08:53:00
4:53 AM,23.0,16.0,74,30.14,8.0,SW,5.8,-,N/A,,Overcast,220,2012-12-31 09:53:00
5:53 AM,23.0,16.0,74,30.13,8.0,SW,8.1,-,N/A,,Overcast,230,2012-12-31 10:53:00
6:53 AM,23.0,16.0,74,30.13,8.0,WSW,9.2,-,N/A,,Overcast,250,2012-12-31 11:53:00
7:53 AM,23.0,16.0,74,30.12,7.0,SW,6.9,-,N/A,,Mostly Cloudy,220,2012-12-31 12:53:00
8:03 AM,23.0,16.0,74,30.04,7.0,SW,5.8,-,N/A,,Scattered Clouds,230,2012-12-31 13:03:00
8:53 AM,24.1,16.0,71,30.09,9.0,Variable,6.9,16.1,N/A,,Clear,0,2012-12-31 13:53:00
9:53 AM,26.1,16.0,66,30.08,10.0,WSW,10.4,16.1,N/A,,Clear,240,2012-12-31 14:53:00
10:53 AM,28.0,17.1,63,30.05,10.0,SW,6.9,18.4,N/A,,Clear,230,2012-12-31 15:53:00
11:53 AM,30.9,17.1,57,30.01,10.0,WSW,13.8,21.9,N/A,,Partly Cloudy,240,2012-12-31 16:53:00
12:53 PM,32.0,17.1,54,29.98,10.0,SW,13.8,20.7,N/A,,Clear,230,2012-12-31 17:53:00
1:53 PM,32.0,18.0,56,29.95,10.0,WSW,12.7,21.9,N/A,,Partly Cloudy,240,2012-12-31 18:53:00
2:53 PM,33.1,19.0,56,29.92,10.0,SW,10.4,-,N/A,,Clear,230,2012-12-31 19:53:00
3:53 PM,32.0,19.0,59,29.93,10.0,WSW,8.1,17.3,N/A,,Scattered Clouds,240,2012-12-31 20:53:00
4:53 PM,32.0,19.0,59,29.92,10.0,WSW,12.7,23.0,N/A,,Overcast,240,2012-12-31 21:53:00
5:53 PM,32.0,19.0,59,29.92,10.0,West,6.9,16.1,N/A,,Overcast,260,2012-12-31 22:53:00
6:53 PM,32.0,19.9,61,29.93,10.0,WSW,9.2,19.6,N/A,,Overcast,250,2012-12-31 23:53:00
7:05 PM,32.0,21.0,64,29.86,4.0,WSW,10.4,23.0,0.00,Snow,Light Snow,250,2013-01-01 00:05:00
7:17 PM,30.9,21.9,69,29.86,2.0,Variable,5.8,-,0.00,Snow,Light Snow,0,2013-01-01 00:17:00
7:25 PM,30.9,21.9,69,29.86,1.2,West,8.1,-,0.00,Snow,Light Snow,260,2013-01-01 00:25:00
7:51 PM,30.2,23.0,75,29.85,3.0,WSW,11.5,19.6,0.01,Snow,Light Snow,240,2013-01-01 00:51:00
7:53 PM,30.9,23.0,72,29.91,4.0,SW,8.1,19.6,0.01,Snow,Light Snow,230,2013-01-01 00:53:00
8:09 PM,30.9,23.0,72,29.85,5.0,Variable,6.9,-,0.00,Snow,Light Snow,0,2013-01-01 01:09:00
8:22 PM,30.9,23.0,72,29.85,2.0,WSW,9.2,18.4,0.00,Snow,Light Snow,250,2013-01-01 01:22:00
8:29 PM,30.9,23.0,72,29.85,1.5,WSW,8.1,-,0.00,Snow,Light Snow,250,2013-01-01 01:29:00
8:51 PM,30.2,23.0,75,29.84,2.0,West,5.8,16.1,0.00,Snow,Light Snow,260,2013-01-01 01:51:00
8:53 PM,30.9,23.0,72,29.91,2.0,West,12.7,17.3,0.00,Snow,Light Snow,270,2013-01-01 01:53:00
9:11 PM,30.9,23.0,72,29.86,1.8,West,9.2,16.1,0.00,Snow,Light Snow,270,2013-01-01 02:11:00
9:30 PM,30.9,24.1,76,29.86,2.5,West,9.2,19.6,0.01,Snow,Light Snow,260,2013-01-01 02:30:00
9:38 PM,30.9,24.1,76,29.86,2.5,West,8.1,-,0.01,Snow,Light Snow,260,2013-01-01 02:38:00
9:53 PM,30.9,23.0,72,29.93,3.0,West,10.4,20.7,0.01,Snow,Light Snow,260,2013-01-01 02:53:00
10:29 PM,30.9,23.0,72,29.86,2.0,West,13.8,23.0,0.00,Snow,Light Snow,270,2013-01-01 03:29:00
10:53 PM,30.9,23.0,72,29.92,1.8,West,11.5,19.6,0.00,Snow,Light Snow,270,2013-01-01 03:53:00
11:03 PM,30.9,23.0,72,29.86,3.0,West,12.7,18.4,0.00,Snow,Light Snow,270,2013-01-01 04:03:00
11:53 PM,30.9,23.0,72,29.92,7.0,West,10.4,-,0.00,,Overcast,270,2013-01-01 04:53:00